Theta_e
321 321 318 319 319 323 325 325 332 334 333 339 342 340 341 338 335 333 330 329 328 328 324 323 321 317 318 317 317 314 311 312 311 309 309 311 309 308 307 308 309 310 311
317 318 313 316 319 322 326 326 331 335 336 341 342 340 339 334 331 329 328 329 328 327 324 323 321 318 317 317 316 314 312 310 310 307 305 304 306 308 308 306 309 309 313
315 316 313 316 319 321 326 327 330 334 338 339 339 334 332 328 326 324 325 328 327 326 325 323 321 319 317 315 314 314 311 308 308 308 305 299 299 302 306 304 306 309 310
316 316 316 316 319 321 326 329 331 333 338 344 341 338 338 332 326 324 325 326 326 326 325 324 322 319 318 315 315 314 311 308 306 307 307 305 305 301 298 301 302 306 310
314 315 316 317 321 322 325 329 332 335 341 345 343 341 339 336 326 325 324 323 326 327 326 324 322 321 319 317 315 313 311 308 306 306 304 303 301 300 298 295 299 302 303
314 315 317 318 320 323 326 332 334 335 341 344 345 342 340 326 324 323 323 323 325 325 327 325 323 320 319 317 314 312 310 308 306 305 304 303 301 301 298 296 296 297 300
316 316 314 316 319 323 330 334 336 335 339 342 343 342 334 328 325 322 323 324 324 324 324 324 322 320 319 318 314 312 310 307 305 304 303 303 302 301 300 298 297 296 298
308 315 317 316 318 325 331 335 336 336 338 340 338 335 328 329 328 325 324 326 325 326 325 324 322 321 320 318 315 311 310 309 307 304 303 302 302 302 302 300 297 294 294
318 310 312 316 318 327 332 335 337 337 337 330 335 330 328 326 326 325 326 326 326 326 325 324 322 321 320 317 313 310 308 309 306 304 303 301 301 301 300 300 298 296 292
322 316 314 320 326 330 333 336 337 335 330 328 333 331 328 326 326 325 324 325 325 326 325 324 322 320 319 315 311 309 308 307 306 304 302 302 300 300 299 298 298 297 295
321 325 323 324 327 330 333 336 333 329 328 331 337 332 327 325 325 325 324 324 324 325 325 324 321 319 317 314 310 308 308 306 304 303 304 302 300 298 298 297 296 296 294
317 326 326 326 326 330 333 333 332 327 328 337 338 332 328 327 325 324 323 323 323 325 326 324 320 318 316 315 311 310 308 306 303 305 303 303 303 297 297 295 294 294 293
308 322 327 327 328 330 333 333 329 327 327 336 337 334 330 326 325 324 323 324 324 325 325 323 319 316 314 314 312 311 308 305 305 305 304 304 301 298 295 293 293 293 296
315 315 326 328 328 330 331 332 327 326 326 333 334 333 332 330 325 325 325 324 323 324 324 321 318 316 314 314 312 311 308 306 307 306 305 303 300 295 295 293 292 293 293
316 318 319 325 329 328 329 328 327 326 332 335 333 333 333 332 327 325 325 324 324 324 323 320 318 316 313 312 310 309 307 305 305 305 303 300 299 303 299 296 293 293 292
315 316 317 320 328 329 328 328 327 328 337 335 333 333 332 330 327 325 323 324 324 323 322 320 317 313 313 307 308 308 306 305 305 301 301 303 307 306 306 305 304 299 296
311 315 316 318 321 328 328 327 327 327 336 335 334 333 331 330 326 325 323 323 322 322 320 318 315 312 311 305 305 307 307 305 304 302 302 300 299 298 298 304 306 307 304
309 312 316 316 319 321 333 329 329 327 334 334 334 332 331 330 327 325 323 324 322 318 316 314 313 311 309 304 303 305 306 305 305 304 301 297 294 294 297 297 295 294 295
309 311 316 315 315 316 321 332 335 336 334 333 332 332 331 329 327 325 325 321 318 316 314 311 307 309 305 303 303 305 306 305 303 304 301 297 294 297 299 296 293 291 292
311 313 316 317 315 316 320 322 326 336 335 334 333 333 331 329 327 327 324 321 318 315 312 307 307 306 304 301 302 306 306 304 303 303 300 300 295 297 298 294 291 290 290
311 314 314 313 314 316 319 318 324 324 328 337 335 334 331 329 328 328 323 318 316 311 307 305 304 304 305 304 302 303 306 304 302 300 298 295 297 296 296 294 292 291 291
311 312 312 311 316 320 321 316 316 323 327 330 333 332 332 330 327 321 317 316 310 306 304 301 302 305 305 303 301 300 303 303 303 298 296 295 295 294 294 293 294 294 295
311 312 310 311 314 318 319 317 318 322 323 324 325 329 328 324 321 317 313 310 308 305 303 301 300 299 303 304 300 299 298 298 297 299 297 295 294 294 294 295 295 295 291
309 311 311 310 312 316 319 317 318 319 319 318 319 320 318 316 316 314 313 309 307 305 302 301 299 298 298 300 301 301 299 299 297 298 297 296 294 293 293 293 294 293 292
309 311 312 311 311 313 315 314 314 316 313 313 314 313 313 314 313 313 313 310 309 306 303 302 300 298 297 299 300 299 300 298 294 294 293 290 290 289 290 291 292 293 293
308 309 312 312 314 314 313 313 312 313 313 311 312 312 313 312 312 310 306 297 301 298 298 299 301 301 298 296 294 294 295 293 293 293 291 291 290 289 290 291 292 293 295
Wind_Speed
24 18 12 15 11 15 16 17 15 11 9 4 5 2 5 4 3 3 7 7 7 6 7 6 5 4 5 5 4 3 4 5 2 3 3 4 6 7 5 4 4 5 4
16 16 10 15 17 19 18 17 17 12 13 10 6 4 5 3 3 4 4 6 7 9 8 9 6 6 5 6 3 3 2 3 5 3 2 3 4 5 6 6 6 7 5
23 20 14 19 19 21 20 19 18 17 15 7 6 4 6 4 4 3 4 6 8 8 8 9 8 7 5 5 4 4 3 4 3 6 4 2 3 1 4 6 5 6 5
20 19 20 16 20 20 18 19 18 17 13 15 11 15 12 10 5 6 5 7 9 9 9 9 9 7 5 6 4 4 4 2 4 3 4 4 4 4 1 3 4 5 7
24 22 22 23 21 17 18 18 17 17 17 18 18 16 16 9 6 6 10 8 6 9 10 10 9 8 5 6 7 5 6 2 3 3 2 4 4 3 4 1 3 4 4
22 24 24 25 13 15 17 17 21 20 20 20 19 17 15 12 11 9 9 6 3 3 8 10 9 8 8 7 6 6 7 5 5 3 3 3 3 2 3 3 1 2 1
18 21 22 21 20 20 21 18 21 22 22 20 15 12 11 14 17 15 10 11 8 5 8 10 10 8 7 7 7 7 7 6 5 5 4 2 2 4 2 4 2 2 2
12 22 26 24 25 26 24 24 23 22 22 17 12 10 12 10 10 14 11 10 10 9 10 10 11 11 10 8 7 5 5 6 5 7 5 4 3 2 3 4 5 2 3
7 10 9 17 21 21 23 25 23 21 17 11 11 11 12 12 11 12 12 11 9 8 12 13 12 11 11 10 9 6 6 6 5 6 6 4 2 3 4 3 2 5 3
9 8 10 12 16 19 20 18 18 20 14 12 11 11 12 11 11 12 13 13 10 10 11 12 13 12 11 11 9 6 6 7 5 5 7 5 3 4 4 4 3 2 5
7 4 6 7 15 14 16 16 15 14 11 14 13 13 12 13 13 13 13 12 9 12 13 14 14 13 12 12 9 8 8 8 7 6 7 6 4 3 4 3 3 4 3
8 8 6 5 8 15 16 18 17 16 15 12 13 13 13 14 13 13 13 13 13 12 13 13 14 13 13 13 12 12 10 11 9 8 8 8 5 5 4 4 5 3 2
13 9 6 10 13 15 16 18 16 18 12 12 13 12 13 13 13 13 12 13 13 13 14 14 15 14 14 13 12 12 12 11 11 10 9 8 7 5 3 3 5 3 2
18 19 10 11 13 14 16 17 15 15 13 13 13 14 15 15 14 13 14 15 14 15 14 15 15 15 14 14 14 13 13 12 11 10 9 9 8 8 7 5 5 3 4
18 19 17 13 14 15 15 12 13 14 14 15 15 16 15 14 14 14 15 14 15 15 15 15 15 15 13 11 14 14 14 13 10 7 8 8 10 13 9 5 5 5 3
16 17 22 23 14 16 17 17 16 16 16 18 17 14 14 15 15 15 14 15 16 15 15 16 17 15 11 18 20 18 14 13 13 10 6 8 12 9 9 7 7 7 6
18 17 15 21 21 13 15 16 20 16 17 17 16 16 16 16 17 16 16 17 16 15 16 16 16 17 14 21 19 17 10 10 11 7 7 6 4 7 6 5 5 7 6
19 17 12 12 16 20 13 13 12 16 18 17 17 17 19 19 17 18 16 13 13 15 14 13 13 12 9 18 19 17 14 12 13 10 9 8 7 6 7 6 6 3 2
16 16 13 13 10 13 16 11 8 13 15 20 21 21 20 19 17 15 16 11 10 11 11 11 12 13 13 24 23 17 13 13 12 10 7 8 6 9 10 7 6 3 2
14 15 14 13 8 9 10 9 12 6 14 17 21 21 22 20 19 21 19 21 15 12 11 11 12 17 17 18 16 15 10 12 9 9 7 13 9 10 11 7 6 6 3
11 15 14 12 9 8 8 6 7 8 9 13 12 15 21 22 18 17 13 15 15 13 13 13 12 17 20 21 24 20 11 11 9 8 6 4 11 12 11 9 6 5 4
10 11 11 14 12 9 7 2 3 5 7 4 10 17 19 16 13 17 14 14 15 15 14 14 12 11 14 20 20 17 10 14 10 8 5 6 13 12 11 8 7 6 4
11 8 9 11 12 10 8 9 5 3 4 5 11 7 16 14 15 16 16 13 15 14 13 13 12 11 11 12 16 19 14 9 5 6 9 11 12 11 8 8 7 6 3
10 9 9 8 10 12 9 8 10 11 13 14 13 10 11 12 11 10 11 11 11 12 12 12 12 11 9 9 8 8 9 9 7 8 6 8 8 6 5 4 4 4 4
12 8 9 8 9 7 9 7 6 7 7 8 8 6 10 8 10 9 10 11 12 16 16 13 15 16 13 15 16 15 12 9 7 7 4 3 4 4 4 3 4 3 3
12 9 11 10 10 8 5 5 4 6 3 8 3 4 2 3 5 7 7 10 8 13 14 22 18 9 11 20 15 16 14 13 16 4 4 4 5 6 6 5 4 3 5
Wind_Direction
215 212 211 216 188 195 191 191 187 187 173 152 153 137 171 151 133 131 132 143 137 131 133 124 127 122 110 123 120 91 70 46 20 92 53 30 36 47 28 16 37 43 21
218 215 201 207 198 196 195 188 188 174 182 179 181 152 145 114 115 124 153 148 161 153 146 139 139 128 113 101 94 100 103 51 6 109 73 61 352 16 13 18 21 33 45
214 211 203 205 205 200 189 190 187 182 184 149 116 89 82 81 114 156 152 182 167 154 156 145 140 130 126 125 115 109 104 129 33 60 128 97 190 11 345 10 21 33 50
223 223 216 210 210 208 190 190 187 183 174 173 169 167 181 173 199 160 151 178 170 165 158 150 141 134 132 120 113 112 116 116 121 64 44 60 147 148 76 357 357 23 48
221 215 213 216 210 189 192 190 180 179 179 181 188 190 182 177 146 147 157 164 186 178 161 151 142 138 129 124 118 112 106 107 127 128 135 65 51 60 114 84 348 15 22
227 223 213 216 180 185 186 186 180 187 189 195 198 199 185 155 144 149 171 162 180 177 172 153 144 141 133 137 132 127 117 122 100 99 118 151 152 163 127 119 223 172 297
227 223 213 205 191 186 185 183 184 191 196 199 190 181 170 161 157 159 168 161 165 204 187 154 143 146 141 140 136 137 137 137 128 133 107 93 111 132 141 119 142 124 345
218 220 216 202 194 188 185 184 191 195 195 195 177 146 156 165 169 163 165 180 183 182 174 155 150 149 142 141 141 140 132 130 129 130 120 118 124 136 149 152 139 91 31
262 242 233 204 194 186 189 187 190 198 191 173 158 155 161 160 169 161 169 181 178 179 172 157 150 151 148 147 149 144 133 142 134 137 125 110 111 86 81 94 128 135 131
326 305 160 163 183 186 189 192 192 195 187 170 173 161 165 166 161 162 175 184 173 171 168 157 155 152 151 149 150 142 141 137 135 132 125 121 116 109 111 110 106 112 138
255 255 311 194 186 186 184 189 192 188 177 177 173 165 164 168 163 171 175 182 169 168 175 163 161 157 157 160 156 144 145 134 134 135 128 120 134 125 108 104 85 82 96
235 207 191 182 202 189 185 194 197 193 194 177 169 170 167 172 173 175 175 165 175 171 172 170 164 163 165 166 154 154 148 145 149 148 137 136 128 108 119 103 102 100 94
320 303 178 200 200 201 200 197 197 204 183 175 172 177 174 174 179 177 171 171 171 174 170 173 170 169 169 167 163 155 153 155 157 153 147 147 142 132 136 123 112 116 89
356 343 283 249 206 207 204 205 205 196 184 176 180 182 187 182 175 170 172 175 174 170 173 179 172 173 173 169 163 157 158 156 159 148 151 147 152 149 145 135 130 132 128
355 351 337 280 246 215 212 213 209 191 185 185 187 194 185 182 174 175 178 175 177 179 179 174 175 175 174 166 159 156 159 153 142 132 144 139 154 149 151 138 162 151 144
344 350 354 344 269 244 221 207 205 196 187 187 191 184 178 174 179 178 173 174 179 181 176 181 175 172 176 157 155 157 155 144 135 158 159 153 145 133 130 155 176 179 159
338 338 347 346 334 268 240 251 205 192 191 190 181 179 178 181 180 173 171 179 181 175 180 178 176 177 173 153 139 133 125 130 130 161 154 136 136 127 123 126 116 129 143
331 327 330 344 347 337 294 239 235 209 187 189 182 175 178 187 181 173 167 173 170 174 174 175 177 173 161 141 128 122 129 134 146 162 180 145 150 148 142 135 125 118 158
321 316 319 314 328 343 338 319 211 217 217 192 188 183 179 177 169 177 160 153 173 169 168 157 150 156 140 129 134 135 143 139 154 153 205 144 148 158 149 144 144 173 212
328 325 322 318 315 330 336 0 8 254 231 235 204 185 180 179 173 170 159 165 177 164 149 140 151 149 140 132 125 130 132 151 155 185 170 156 156 165 154 148 155 158 207
322 332 336 326 303 289 296 22 8 16 322 263 232 228 176 168 175 165 159 154 150 142 143 140 144 148 145 146 148 159 165 152 170 169 169 159 167 164 155 142 170 173 172
312 325 331 325 318 314 301 299 307 303 1 260 272 218 213 147 150 146 139 149 138 140 144 140 144 149 149 153 159 154 152 154 168 164 163 170 180 164 156 163 189 158 136
290 293 310 323 314 327 349 346 328 264 30 18 219 255 184 127 141 145 143 143 146 146 152 153 153 153 163 155 162 138 147 163 137 147 166 178 187 158 168 184 180 157 130
288 281 294 314 320 329 341 344 340 14 40 34 339 159 150 127 138 133 140 149 150 150 154 156 150 152 156 163 163 156 161 167 137 155 171 186 162 151 155 165 191 181 167
282 269 275 282 289 310 327 339 16 16 63 69 8 334 91 129 136 142 158 165 174 163 161 167 158 154 175 180 179 161 177 172 150 126 118 136 128 162 185 191 199 180 170
279 268 266 273 273 284 286 304 2 77 17 79 72 0 51 146 149 138 102 36 135 144 157 157 159 159 134 150 163 160 165 148 141 118 153 154 164 184 188 186 207 196 208